Regional Weather Roundup
Issued by NWS Goodland, KS

Home | Current Version | Previous Version | Text Only | Print | Product List | Glossary Off
Versions: 1 2 3 4 5 6 7 8 9 10 11 12 13 14 15 16 17 18 19 20 21 22 23 24 25 26 27 28 29 30 31 32 33 34 35 36 37 38 39 40 41 42 43 44 45 46 47 48 49 50

000
ASUS43 KGLD 171459
RWRGLD

GOODLAND FORECAST AREA HOURLY WEATHER ROUNDUP
NATIONAL WEATHER SERVICE GOODLAND KS
800 AM MST TUE JAN 17 2017

...OFFICIAL OBSERVATIONS...

CITY           SKY/WX    TMP DP  RH WIND       PRES   REMARKS
GOODLAND KS    CLOUDY    23  18  81 W8        30.10R
HILL CITY KS   CLEAR     31  25  78 NW8       30.13R
IMPERIAL NEB   CLOUDY    22  14  71 W7        30.10R
MCCOOK NEB     CLOUDY    25  21  85 W9        30.10R
AKRON CO       CLOUDY    23  12  62 SW10      30.06R WCI  12
BURLINGTON CO  CLOUDY    22  16  78 W9        30.10R
LIMON CO       CLOUDY    13  10  88 N3        30.09R
$$

...UNOFFICIAL OBSERVATIONS...

CITY           SKY/WX    TMP DP  RH WIND       PRES   REMARKS
LENORA KS        N/A     27  32 100 NW8         N/A
NORTON KS      CLEAR     28  19  69 W7        30.10R
SHARON SPRINGS   N/A     31  28  88 NW5         N/A
TRENTON NEB      N/A     22  32 100 CALM        N/A
KIT CARSON CO    N/A     25  22  87 CALM        N/A
YUMA CO        FAIR      12   7  79 W7        30.08R
$$




USA.gov is the U.S. government's official web portal to all federal, state and local government web resources and services.